Terminal Aerodrome Forecast
Issued by NWS Sioux Falls, SD

Home | Current Version | Previous Version | Graphics & Text | Print | Product List | Glossary Off
Versions: 1 2 3 4 5 6 7 8 9 10 11 12 13 14 15 16 17 18 19 20 21 22 23 24 25 26 27 28 29 30 31 32 33 34 35 36 37

000
FTUS43 KFSD 280520
TAFSUX
TAF
KSUX 280520Z 2806/2906 15006KT P6SM SCT080
     FM282000 17010KT P6SM SCT080 SCT250
     FM290200 13005KT P6SM BKN080=

USA.gov is the U.S. government's official web portal to all federal, state and local government web resources and services.